Погода в Бомнаке

Погода в Бомнаке : погода сейчас, прогноз погоды и архив. Всё, что Вы хотите узнать о погоде в Бомнаке!

Поиск расширенной информации на нашем сайте:

Другие новости

Новости СМИ2

Главная страница сайта

Новости сайта

03.07.2017

Напоминаем, что на нашем специализированном сайте Метеоцентр.Азия вы можете получить высокодетализированные автоматические прогнозы погоды по пунктам России, СНГ и мира в авиационном формате (включающие направление и скорость ветра, видимость, явления погоды, количество и форму облачности, нижнюю и верхнюю границу облачности).


Погода в Бомнаке - сегодня

Время (UTC), дата Ветер
(°,м/с) 
Видим.   Явления Облачность Т
(°С)
Тd
(°С)
f(%) Тe
(°С)
Pmin
(гПа)
dP
(гПа)
Po
(мм)
O2
(г/м3)
Тmin Tmax R s Состояние
почвы
12 20.10.17 330 (СЗ) 20000 м  {ливн. осадки}  10/10 600 м кучево-дожд. 
[Cb cap]
-3.7 -5 91 -5  1016.3  -0.7  728  298    -1.3  0.5     
15 20.10.17 330 (СЗ) 10 км  слаб. ливневой снег  10/10 600 м кучево-дожд. 
[Cb cap]
-4.6 -5.3 95 -7  1015.2  -1.3  727  298           
18 20.10.17 320 (СЗ) 10 км  слаб. ливневой снег  10/10 600 м кучево-дожд. 
[Cb cap]
-5 -5.6 96 -7  1013.4  -1.8  726  298           
21 20.10.17 340 (С) 2000 м  ливневой снег  10/10 600 м кучево-дожд. 
[Cb cap]
-5.3 -6.1 94 -9  1012.2  -1.8  725  298           
00 21.10.17 330 (СЗ) 2000 м  ливневой снег  10/10 600 м кучево-дожд. 
[Cb cap]
-5.5 -6.4 93 -9  1012.1  -0.2  725  299  -5.7    17  равномерный
сухой снег
100% 
03 21.10.17 330 (СЗ) 2000 м  ливневой снег  10/10 600 м кучево-дожд. 
[Cb cap]
-4.1 -5 93 -7  1012.4  0.6  725  297           
06 21.10.17 320 (СЗ) 4000 м  слаб. ливневой снег  10/10 600 м кучево-дожд. 
[Cb cap]
-3.3 -5.4 85 -6  1013.5  1.1  726  297           
09 21.10.17 310 (СЗ) 2000 м  ливневой снег  10/10 600 м кучево-дожд. 
[Cb cap]
-4.3 -5.2 93 -7  1016  2.2  728  298           
12 21.10.17 310 (СЗ) 20000 м  {ливн. осадки}  9/9 600 м кучево-дожд. 
[Cb cap]
-5.7 -10.5 69 -9  1017.7  1.4  729  301    -3.3     
15 21.10.17 310 (СЗ) 20000 м    6/3 600 м кучево-дожд., средняя, верхняя 
[Cb cap|Ac trans|Ci fib]
-8 -12.6 69 -12  1019  0.8  729  304           
18 21.10.17 310 (СЗ) 20000 м    3/0 верхняя 
[Ci fib]
-10.7 -14.1 76 -14  1020.6  1.1  730  307           
21 21.10.17 330 (СЗ) 20000 м    ясно 
-12 -15.2 77 -15  1021.9  731  309           
00 22.10.17 290 (З) 20000 м    4/0 верхняя 
[Ci fib]
-12 -15.6 75 -12  1023.6  1.6  732  310  -13.1      19  равномерный
сухой снег
100% 
03 22.10.17 240 (ЮЗ) 20000 м    3/0 верхняя 
[Ci fib]
-4.7 -12.5 54 -6  1023.1  0.8  733  301           
06 22.10.17 220 (ЮЗ) 20000 м    ясно 
-2.2 -9.3 58 -3  1022.4  -0.2  732  298           
09 22.10.17 240 (ЮЗ) 20000 м    ясно 
-3.4 -10.6 57 -3  1023.2  0.5  733  300           
12 22.10.17 320 (СЗ) 20000 м    ясно 
-5.1 -12.1 58 -5  1023.7  0.2  733  302    -1.8       
15 22.10.17 110 (В) 20000 м    3/0 верхняя 
[Ci fib]
-11.6 -12.9 90 -11  1024.6  -0.3  733  310           
18 22.10.17 090 (В) 20000 м    4/0 верхняя 
[Ci fib]
-11.5 -12.8 90 -15  1024  -0.6  732  309           
21 22.10.17 100 (В) 20000 м    4/0 средняя, верхняя 
[Ac trans|Ci fib]
-12.8 -13.6 94 -13  1023.5  -0.7  732  311           
00 23.10.17 тихо ()   20000 м    ясно 
-12.6 -14.4 86 -13  1023.4  732  310  -13.7      16  равномерный
сухой снег
100% 
03 23.10.17 110 (В) 20000 м    ясно 
-7.1 -10.7 75 -9  1021.2  -1.2  731  303           
06 23.10.17 250 (З) 20000 м    ясно 
-2.1 -7.2 68 -3  1018.5  -1.6  730  297           
09 23.10.17 270 (З) 20000 м    ясно 
-3.1 -8.7 65 -3  1018  -0.7  729  298           
12 23.10.17 040 (СВ) 20000 м    ясно 
-8 -9.3 90 -8  1018.4  -0.4  729  303    -1.2       
Время (UTC), дата Ветер
(°,м/с) 
Видим.   Явления Облачность Т
(°С)
Тd
(°С)
f(%) Тe
(°С)
Pmin
(гПа)
dP
(гПа)
Po
(мм)
O2
(г/м3)
Тmin Tmax R s Состояние
почвы

Для получения пояснительной информации подведите курсор к названию столбца.

ПОГОДА в Бомнаке - архив

Всё, что Вы хотите узнать о погоде в Бомнаке - удобно и подробно!

Выберите нужную дату (начиная с 1 января 2015* года) и нажмите кнопку "Найти".
Будут отображены архивные сводки погоды по пункту Бомнак, начиная с указанной даты.


Отображать данные в формате CSV (для использования в таблицах Excel)


Внимание! Наш архив погоды предназначен исключительно для личного некоммерческого использования в познавательных целях. Если Вам необходимы официальные справки о состоянии погоды (для производственных, юридических, коммерческих и т.п. целей), обращайтесь в органы Росгидромета.

*Примечание: данная дата относится к архиву по метеостанциям СССР (Россия, СНГ, Балтия).
Архив по метеостанциям Зарубежной Европы и Азии (кроме Китая) хранится 10 дней, по другим регионам земного шара (Китай, Африка, Америка, Австралия, Океания) - 1 день.

Бомнак - район местоположения метеостанции


Название, широта, долгота, высота метеостанции:
Бомнак 54.7°ш. 128.9°д. 357 м над ур. моря [Российская Федерация]

Дополнительная информация

В oтличие oт бoльшинства пoгoдных сайтoв мы публикуем пoдрoбную метеoинфoрмацию в детальнoм прoфессиoнальнoм фoрмате.

Характеристики температуры и влажнoсти вoздуха измеряются на высoте 2 м в тени вдали oт зданий и деревьев.
Скoрoсть ветра измеряется на высoте 10 м (на урoвне рoста челoвека скoрoсть ветра ниже в 1.5-2 раза). Если метеoстанция нахoдится в гoрoде или в лесу, тo скoрoсть ветра занижена на 2-4 м/с пo сравнению с oткрытым местoм. Скoрoсть ветра над акватoриями крупных рек и oзёр, а также на вершинах хoлмoв на 2-5 м/с выше, чем в oбычных услoвиях.
Атмoсфернoе давление в разных тoчках местнoсти мoжет значительнo oтличаться oт давления на метеoстанции, в зависимoсти oт услoвий рельефа (при пoдъёме на 10 м давление пoнижается примернo на 1 мм рт.ст.).